TimeCDT,TemperatureF,Dew PointF,Humidity,Sea Level PressureIn,VisibilityMPH,Wind Direction,Wind SpeedMPH,Gust SpeedMPH,PrecipitationIn,Events,Conditions,WindDirDegrees,DateUTC
12:15 AM,80.6,70.7,72,29.93,10.0,SE,5.8,-,N/A,,Clear,130,2013-07-21 05:15:00
12:35 AM,80.6,70.7,72,29.93,10.0,SE,5.8,-,N/A,,Clear,130,2013-07-21 05:35:00
12:55 AM,80.1,70.7,73,29.92,10.0,SE,6.9,-,N/A,,Clear,130,2013-07-21 05:55:00
1:15 AM,79.9,70.7,73,29.92,10.0,SSE,6.9,-,N/A,,Clear,150,2013-07-21 06:15:00
1:35 AM,80.1,70.2,72,29.92,10.0,SSE,5.8,-,N/A,,Clear,150,2013-07-21 06:35:00
1:55 AM,80.1,70.0,71,29.92,10.0,SSE,6.9,-,N/A,,Clear,150,2013-07-21 06:55:00
2:15 AM,79.7,69.8,72,29.92,10.0,SSE,5.8,-,N/A,,Clear,150,2013-07-21 07:15:00
2:35 AM,78.8,70.7,76,29.92,10.0,SE,4.6,-,N/A,,Clear,130,2013-07-21 07:35:00
2:55 AM,77.9,70.9,79,29.92,10.0,ESE,5.8,-,N/A,,Clear,120,2013-07-21 07:55:00
3:15 AM,77.2,70.7,80,29.92,10.0,SE,5.8,-,N/A,,Clear,130,2013-07-21 08:15:00
3:35 AM,77.0,70.7,81,29.92,10.0,SE,5.8,-,N/A,,Clear,130,2013-07-21 08:35:00
3:55 AM,76.5,70.5,82,29.92,10.0,SE,6.9,-,N/A,,Clear,130,2013-07-21 08:55:00
4:15 AM,76.1,70.7,83,29.92,10.0,ESE,5.8,-,N/A,,Clear,120,2013-07-21 09:15:00
4:35 AM,75.9,70.7,84,29.92,10.0,SE,5.8,-,N/A,,Clear,130,2013-07-21 09:35:00
4:55 AM,76.1,70.7,83,29.92,10.0,SE,4.6,-,N/A,,Clear,140,2013-07-21 09:55:00
5:15 AM,75.6,70.7,85,29.92,10.0,SE,3.5,-,N/A,,Clear,130,2013-07-21 10:15:00
5:35 AM,75.4,70.7,85,29.92,10.0,ESE,3.5,-,N/A,,Clear,110,2013-07-21 10:35:00
5:55 AM,75.4,70.7,85,29.92,10.0,SE,3.5,-,N/A,,Clear,130,2013-07-21 10:55:00
6:15 AM,76.1,70.7,83,29.92,10.0,SSE,5.8,-,N/A,,Clear,150,2013-07-21 11:15:00
6:35 AM,76.3,70.3,82,29.93,10.0,Calm,Calm,-,N/A,,Clear,0,2013-07-21 11:35:00
6:55 AM,76.5,70.7,82,29.94,10.0,SE,3.5,-,N/A,,Scattered Clouds,140,2013-07-21 11:55:00
7:15 AM,77.2,70.7,80,29.93,10.0,SSE,3.5,-,N/A,,Mostly Cloudy,160,2013-07-21 12:15:00
7:35 AM,77.9,70.9,79,29.93,10.0,SSE,3.5,-,N/A,,Overcast,160,2013-07-21 12:35:00
7:55 AM,77.9,70.7,78,29.93,10.0,SSE,3.5,-,N/A,,Mostly Cloudy,150,2013-07-21 12:55:00
8:15 AM,79.2,71.2,77,29.94,10.0,South,4.6,-,N/A,,Scattered Clouds,170,2013-07-21 13:15:00
8:35 AM,81.0,71.2,72,29.95,10.0,SSW,5.8,-,N/A,,Mostly Cloudy,210,2013-07-21 13:35:00
8:55 AM,81.7,71.4,71,29.95,10.0,SW,5.8,-,N/A,,Scattered Clouds,230,2013-07-21 13:55:00
9:15 AM,84.4,71.1,64,29.95,10.0,SW,6.9,-,N/A,,Clear,230,2013-07-21 14:15:00
9:35 AM,85.6,70.7,61,29.95,10.0,SW,11.5,-,N/A,,Clear,220,2013-07-21 14:35:00
9:55 AM,86.5,70.5,59,29.95,10.0,WSW,10.4,-,N/A,,Clear,240,2013-07-21 14:55:00
10:15 AM,87.8,70.2,56,29.95,10.0,SW,8.1,-,N/A,,Clear,220,2013-07-21 15:15:00
10:35 AM,88.0,70.5,56,29.96,10.0,SW,6.9,-,N/A,,Scattered Clouds,220,2013-07-21 15:35:00
10:55 AM,89.2,70.5,54,29.96,10.0,SW,5.8,-,N/A,,Scattered Clouds,220,2013-07-21 15:55:00
11:15 AM,90.1,70.3,52,29.95,10.0,SW,9.2,-,N/A,,Scattered Clouds,220,2013-07-21 16:15:00
11:35 AM,90.5,70.0,51,29.95,10.0,South,6.9,-,N/A,,Clear,180,2013-07-21 16:35:00
11:55 AM,91.0,69.3,49,29.95,10.0,SW,4.6,-,N/A,,Clear,220,2013-07-21 16:55:00
12:15 PM,91.9,68.7,46,29.94,10.0,SSW,6.9,-,N/A,,Clear,200,2013-07-21 17:15:00
1:15 PM,93.2,67.1,42,29.93,10.0,SE,5.8,-,N/A,,Mostly Cloudy,130,2013-07-21 18:15:00
1:35 PM,94.3,66.4,40,29.92,10.0,SSE,6.9,-,N/A,,Scattered Clouds,160,2013-07-21 18:35:00
1:55 PM,93.6,66.4,41,29.91,10.0,SSE,6.9,-,N/A,,Scattered Clouds,160,2013-07-21 18:55:00
2:15 PM,95.2,66.9,39,29.91,10.0,South,9.2,-,N/A,,Scattered Clouds,170,2013-07-21 19:15:00
2:35 PM,95.5,66.4,38,29.90,10.0,South,6.9,-,N/A,,Scattered Clouds,180,2013-07-21 19:35:00
2:55 PM,94.8,65.8,38,29.90,10.0,ESE,8.1,-,N/A,,Scattered Clouds,120,2013-07-21 19:55:00
3:15 PM,95.9,66.0,37,29.90,10.0,SSE,10.4,-,N/A,,Scattered Clouds,160,2013-07-21 20:15:00
3:35 PM,94.8,65.3,38,29.89,10.0,SE,8.1,-,N/A,,Clear,130,2013-07-21 20:35:00
3:55 PM,96.6,65.7,36,29.88,10.0,SE,12.7,-,N/A,,Scattered Clouds,140,2013-07-21 20:55:00
4:15 PM,96.8,65.7,36,29.88,10.0,SE,10.4,-,N/A,,Scattered Clouds,130,2013-07-21 21:15:00
4:35 PM,95.9,64.8,36,29.87,10.0,SSE,9.2,16.1,N/A,,Clear,160,2013-07-21 21:35:00
4:55 PM,96.8,64.8,35,29.87,10.0,SE,8.1,-,N/A,,Clear,130,2013-07-21 21:55:00
5:15 PM,96.3,64.4,35,29.87,10.0,SSE,9.2,-,N/A,,Clear,150,2013-07-21 22:15:00
5:35 PM,97.0,64.2,34,29.86,10.0,SSE,10.4,-,N/A,,Scattered Clouds,150,2013-07-21 22:35:00
5:55 PM,95.5,64.4,36,29.86,10.0,SSE,9.2,-,N/A,,Scattered Clouds,160,2013-07-21 22:55:00
6:15 PM,96.8,63.9,34,29.85,10.0,SSE,11.5,-,N/A,,Clear,150,2013-07-21 23:15:00
6:35 PM,96.8,63.3,33,29.85,10.0,SE,10.4,-,N/A,,Clear,140,2013-07-21 23:35:00
6:55 PM,96.8,63.1,33,29.85,10.0,SE,10.4,-,N/A,,Clear,140,2013-07-21 23:55:00
7:15 PM,95.7,63.9,35,29.85,10.0,SE,8.1,-,N/A,,Clear,140,2013-07-22 00:15:00
7:35 PM,94.3,66.0,39,29.86,10.0,ESE,9.2,-,N/A,,Clear,120,2013-07-22 00:35:00
7:55 PM,93.2,67.6,43,29.87,10.0,ESE,10.4,-,N/A,,Clear,120,2013-07-22 00:55:00
8:15 PM,92.3,67.6,44,29.87,10.0,ESE,10.4,-,N/A,,Scattered Clouds,120,2013-07-22 01:15:00
8:35 PM,91.4,68.0,46,29.87,10.0,ESE,6.9,-,N/A,,Mostly Cloudy,120,2013-07-22 01:35:00
8:55 PM,90.5,68.7,49,29.88,10.0,SE,17.3,20.7,N/A,,Scattered Clouds,140,2013-07-22 01:55:00
9:15 PM,88.7,69.6,53,29.89,10.0,SSE,10.4,-,N/A,,Clear,150,2013-07-22 02:15:00
9:35 PM,87.3,70.3,57,29.89,10.0,SSE,8.1,-,N/A,,Clear,150,2013-07-22 02:35:00
9:55 PM,86.5,70.7,59,29.90,10.0,SSE,10.4,-,N/A,,Clear,160,2013-07-22 02:55:00
10:15 PM,86.0,70.7,60,29.91,10.0,South,10.4,-,N/A,,Clear,170,2013-07-22 03:15:00
10:35 PM,85.1,70.9,62,29.92,10.0,SSE,9.2,-,N/A,,Clear,160,2013-07-22 03:35:00
10:55 PM,84.6,71.2,64,29.92,10.0,SSE,8.1,-,N/A,,Clear,150,2013-07-22 03:55:00
11:15 PM,84.2,71.6,66,29.92,10.0,SSE,8.1,-,N/A,,Clear,150,2013-07-22 04:15:00
11:35 PM,83.7,71.8,67,29.93,10.0,SSE,8.1,-,N/A,,Clear,150,2013-07-22 04:35:00
11:55 PM,83.3,72.0,68,29.93,10.0,SSE,9.2,16.1,N/A,,Clear,150,2013-07-22 04:55:00